This is the latest recevied weather packets stored in our database for station/object KK4XZ. If no packets are shown the sender has not sent any weather packets the latest 10 day(s).
| Time | Temp. | Humidity | Pressure | Rain* | Wind** | Luminosity | Snow |
|---|---|---|---|---|---|---|---|
| 1778220317 | 13.33° C | 94% | 1012.1 hPa | 0 mm | - | - | - |
| 1778219732 | 13.33° C | 94% | 1012.2 hPa | 0 mm | - | - | - |
| 1778219127 | 13.33° C | 94% | 1012.2 hPa | 0 mm | - | - | - |
| 1778218523 | 13.33° C | 94% | 1012.2 hPa | 0 mm | - | - | - |
| 1778217918 | 13.89° C | 94% | 1012.2 hPa | 0 mm | - | - | - |
| 1778217333 | 13.89° C | 94% | 1012.3 hPa | 0 mm | - | - | - |
| 1778216728 | 13.89° C | 94% | 1012.3 hPa | 0 mm | - | - | - |
| 1778216123 | 13.89° C | 93% | 1012.4 hPa | 0 mm | - | - | - |
| 1778215518 | 14.44° C | 93% | 1012.1 hPa | 0 mm | - | - | - |
| 1778214934 | 14.44° C | 93% | 1012.1 hPa | 0 mm | - | - | - |
| 1778214328 | 14.44° C | 93% | 1011.9 hPa | 0 mm | - | - | - |
| 1778213724 | 14.44° C | 92% | 1011.8 hPa | 0 mm | - | - | - |
| 1778213119 | 14.44° C | 92% | 1011.7 hPa | 0 mm | - | - | - |
| 1778212534 | 15° C | 93% | 1011.7 hPa | 0 mm | - | - | - |
| 1778211929 | 15° C | 93% | 1011.8 hPa | 0 mm | - | - | - |
| 1778211324 | 15.56° C | 94% | 1011.3 hPa | 0 mm | - | - | - |
| 1778210719 | 16.11° C | 95% | 1011.3 hPa | 0 mm | - | - | - |
| 1778210134 | 16.67° C | 94% | 1011 hPa | 0 mm | - | - | - |
| 1778209529 | 17.22° C | 95% | 1010.9 hPa | 0 mm | - | - | - |
| 1778208925 | 17.22° C | 95% | 1010.5 hPa | 0 mm | - | - | - |
| 1778208320 | 17.78° C | 96% | 1010.2 hPa | 0 mm | - | - | - |
| 1778207735 | 18.89° C | 97% | 1010 hPa | 0 mm | - | - | - |
| 1778207130 | 19.44° C | 97% | 1009.5 hPa | 0 mm | - | - | - |
| 1778206525 | 18.89° C | 96% | 1008.9 hPa | 0 mm | - | - | - |
| 1778205920 | 18.89° C | 96% | 1008.9 hPa | 0 mm | - | - | - |
* Rain latest hour (hover to see other rain measurements)
** Current wind speed in m/s (hover to see current wind gust speed)